Brookings, SD

10:23 PM CDT on June 22, 2017 (GMT -0500)
Brookings Municipal

Weather History for KBKX - May, 2013

Change the Weather History Date:

Friday, May 31, 2013

  Actual Average Record
Temperature  
Mean Temperature 58 °F -  
Max Temperature 64 °F 67 °F 80 °F (2006)
Min Temperature 53 °F 48 °F 41 °F (2015)
Degree Days  
Heating Degree Days 6    
Growing Degree Days 8 (Base 50)    
Moisture  
Dew Point 52 °F    
Average Humidity 78    
Maximum Humidity 94    
Minimum Humidity 63    
Precipitation  
Precipitation 0.00 in - - ()
Sea Level Pressure  
Sea Level Pressure 29.49 in    
Wind  
Wind Speed 14 mph (SW)    
Max Wind Speed 22 mph    
Max Gust Speed 33 mph    
Visibility 9 miles    
Events      
Averages and records for this station are not official NWS values.
T = Trace of Precipitation, MM = Missing Value Source: NWS Daily Summary

Daily Weather History Graph

Daily Weather History Graph

Search for Another Location

Airport or City:

Trip Planner

Search our weather history database for the weather conditions in past years. The results will help you decide how hot, cold, wet, or windy it might be!

Date:

Astronomy

May. 31, 2013 Rise Set
Actual Time 5:46 AM CDT 9:03 PM CDT
Civil Twilight 5:11 AM CDT 9:39 PM CDT
Nautical Twilight 4:25 AM CDT 10:25 PM CDT
Astronomical Twilight 3:28 AM CDT 11:23 PM CDT
Moon 1:28 AM CDT (5/31) 1:15 PM CDT (5/31)
Length of Visible Light 16h 28m
Length of Day
15h 16m
Waning Gibbous, 51% of the Moon is Illuminated
May 31
Waning Gibbous
May 31
Last Quarter
Jun 8
New
Jun 16
First Quarter
Jun 23
Full

Hourly Weather History & Observations

Time (CDT) Temp. Dew Point Humidity Pressure Visibility Wind Dir Wind Speed Gust Speed Precip Events Conditions
12:15 AM 62.6 °F 55.4 °F 77% 29.47 in 10.0 mi South 12.7 mph 17.3 mph N/A   Clear
12:35 AM 60.8 °F 55.4 °F 82% 29.47 in 10.0 mi South 10.4 mph 19.6 mph N/A   Clear
12:55 AM 62.6 °F 55.4 °F 77% 29.47 in 10.0 mi South 11.5 mph 17.3 mph N/A   Clear
1:15 AM 60.8 °F 51.8 °F 72% 29.46 in 10.0 mi SSW 11.5 mph 20.7 mph N/A   Clear
1:35 AM 60.8 °F 50.0 °F 68% 29.46 in 10.0 mi SSW 10.4 mph 18.4 mph N/A   Clear
1:55 AM 59.0 °F 50.0 °F 72% 29.47 in 10.0 mi South 10.4 mph 18.4 mph N/A   Clear
2:15 AM 57.2 °F 48.2 °F 72% 29.46 in 10.0 mi SW 16.1 mph 23.0 mph N/A   Clear
2:35 AM 57.2 °F 48.2 °F 72% 29.45 in 10.0 mi SSW 12.7 mph 18.4 mph N/A   Clear
2:55 AM 57.2 °F 48.2 °F 72% 29.45 in 10.0 mi SW 13.8 mph 20.7 mph N/A   Clear
3:15 AM 57.2 °F 48.2 °F 72% 29.45 in 10.0 mi SSW 15.0 mph 21.9 mph N/A   Clear
3:35 AM 57.2 °F 48.2 °F 72% 29.45 in 10.0 mi SSW 11.5 mph 18.4 mph N/A   Mostly Cloudy
3:55 AM 57.2 °F 48.2 °F 72% 29.44 in 10.0 mi SSW 12.7 mph 21.9 mph N/A   Mostly Cloudy
4:15 AM 57.2 °F 46.4 °F 67% 29.44 in 10.0 mi SW 19.6 mph 25.3 mph N/A   Partly Cloudy
4:35 AM 57.2 °F 48.2 °F 72% 29.44 in 10.0 mi SW 16.1 mph 24.2 mph N/A   Mostly Cloudy
4:55 AM 55.4 °F 48.2 °F 77% 29.43 in 10.0 mi SW 16.1 mph 23.0 mph N/A   Overcast
5:15 AM 55.4 °F 48.2 °F 77% 29.42 in 10.0 mi SW 13.8 mph 26.5 mph N/A   Overcast
5:35 AM 55.4 °F 48.2 °F 77% 29.42 in 10.0 mi SW 15.0 mph 21.9 mph N/A   Overcast
5:55 AM 55.4 °F 48.2 °F 77% 29.43 in 10.0 mi SW 11.5 mph 20.7 mph N/A   Overcast
6:15 AM 55.4 °F 48.2 °F 77% 29.43 in 10.0 mi WSW 19.6 mph 27.6 mph N/A   Overcast
6:35 AM 53.6 °F 50.0 °F 88% 29.43 in 9.0 mi SW 17.3 mph 27.6 mph N/A   Overcast
6:55 AM 53.6 °F 50.0 °F 88% 29.43 in 3.0 mi SW 17.3 mph 24.2 mph N/A   Overcast
7:15 AM 53.6 °F 51.8 °F 94% 29.43 in 4.0 mi SW 13.8 mph 23.0 mph N/A   Overcast
7:35 AM 53.6 °F 51.8 °F 94% 29.43 in 5.0 mi SW 13.8 mph 21.9 mph N/A   Overcast
7:55 AM 53.6 °F 51.8 °F 94% 29.43 in 6.0 mi SW 11.5 mph 21.9 mph N/A   Overcast
8:15 AM 53.6 °F 51.8 °F 94% 29.43 in 6.0 mi SW 12.7 mph 21.9 mph N/A   Overcast
8:35 AM 55.4 °F 51.8 °F 88% 29.44 in 8.0 mi SW 13.8 mph 25.3 mph N/A   Overcast
8:55 AM 55.4 °F 51.8 °F 88% 29.45 in 10.0 mi SW 16.1 mph 25.3 mph N/A   Overcast
9:15 AM 55.4 °F 51.8 °F 88% 29.45 in 10.0 mi SW 16.1 mph 24.2 mph N/A   Overcast
9:35 AM 55.4 °F 51.8 °F 88% 29.46 in 7.0 mi SW 15.0 mph 23.0 mph N/A   Overcast
9:55 AM 55.4 °F 51.8 °F 88% 29.47 in 3.0 mi SW 15.0 mph 25.3 mph N/A   Overcast
10:15 AM 55.4 °F 51.8 °F 88% 29.47 in 6.0 mi SW 13.8 mph 26.5 mph N/A   Overcast
10:35 AM 55.4 °F 51.8 °F 88% 29.48 in 10.0 mi SW 15.0 mph 24.2 mph N/A   Overcast
10:55 AM 57.2 °F 51.8 °F 82% 29.48 in 10.0 mi SW 20.7 mph 26.5 mph N/A   Overcast
11:15 AM 57.2 °F 51.8 °F 82% 29.48 in 10.0 mi WSW 15.0 mph 26.5 mph N/A   Overcast
11:35 AM 57.2 °F 51.8 °F 82% 29.49 in 10.0 mi SW 15.0 mph 24.2 mph N/A   Overcast
11:55 AM 57.2 °F 51.8 °F 82% 29.50 in 10.0 mi SW 13.8 mph 24.2 mph N/A   Overcast
12:15 PM 59.0 °F 51.8 °F 77% 29.50 in 10.0 mi WSW 15.0 mph 25.3 mph N/A   Overcast
12:35 PM 60.8 °F 51.8 °F 72% 29.50 in 10.0 mi SW 17.3 mph 29.9 mph N/A   Overcast
12:55 PM 60.8 °F 51.8 °F 72% 29.50 in 10.0 mi SW 15.0 mph 29.9 mph N/A   Overcast
1:15 PM 60.8 °F 51.8 °F 72% 29.50 in 10.0 mi SW 13.8 mph 28.8 mph N/A   Overcast
1:35 PM 60.8 °F 51.8 °F 72% 29.50 in 10.0 mi SW 15.0 mph 29.9 mph N/A   Overcast
1:55 PM 60.8 °F 51.8 °F 72% 29.50 in 10.0 mi SW 17.3 mph 32.2 mph N/A   Overcast
2:15 PM 60.8 °F 51.8 °F 72% 29.50 in 10.0 mi SW 18.4 mph 28.8 mph N/A   Overcast
2:35 PM 60.8 °F 51.8 °F 72% 29.51 in 10.0 mi WSW 13.8 mph 26.5 mph N/A   Overcast
2:55 PM 60.8 °F 51.8 °F 72% 29.51 in 10.0 mi SW 21.9 mph 27.6 mph N/A   Overcast
3:15 PM 60.8 °F 51.8 °F 72% 29.51 in 10.0 mi SW 19.6 mph 29.9 mph N/A   Overcast
3:35 PM 60.8 °F 51.8 °F 72% 29.51 in 10.0 mi WSW 15.0 mph 25.3 mph N/A   Overcast
3:55 PM 60.8 °F 51.8 °F 72% 29.51 in 10.0 mi WSW 15.0 mph 27.6 mph N/A   Overcast
4:15 PM 62.6 °F 50.0 °F 63% 29.51 in 10.0 mi WSW 17.3 mph 31.1 mph N/A   Overcast
4:35 PM 62.6 °F 50.0 °F 63% 29.51 in 10.0 mi WSW 20.7 mph 29.9 mph N/A   Overcast
4:55 PM 62.6 °F 51.8 °F 68% 29.51 in 10.0 mi WSW 17.3 mph 33.4 mph N/A   Overcast
5:15 PM 64.4 °F 51.8 °F 64% 29.52 in 10.0 mi WSW 15.0 mph 24.2 mph N/A   Overcast
5:35 PM 64.4 °F 51.8 °F 64% 29.51 in 10.0 mi WSW 16.1 mph 27.6 mph N/A   Overcast
5:55 PM 64.4 °F 53.6 °F 68% 29.51 in 10.0 mi WSW 16.1 mph 27.6 mph N/A   Mostly Cloudy
6:15 PM 64.4 °F 53.6 °F 68% 29.51 in 10.0 mi WSW 18.4 mph 27.6 mph N/A   Mostly Cloudy
6:35 PM 62.6 °F 51.8 °F 68% 29.52 in 10.0 mi WSW 20.7 mph 29.9 mph N/A   Overcast
6:55 PM 62.6 °F 51.8 °F 68% 29.52 in 10.0 mi WSW 19.6 mph 27.6 mph N/A   Overcast
7:15 PM 62.6 °F 51.8 °F 68% 29.52 in 10.0 mi WSW 19.6 mph 27.6 mph N/A   Overcast
7:35 PM 60.8 °F 53.6 °F 77% 29.53 in 10.0 mi WSW 16.1 mph 25.3 mph N/A   Overcast
7:55 PM 59.0 °F 53.6 °F 82% 29.53 in 10.0 mi WSW 13.8 mph 20.7 mph N/A   Overcast
8:15 PM 57.2 °F 53.6 °F 88% 29.53 in 10.0 mi WSW 12.7 mph 20.7 mph N/A   Mostly Cloudy
8:35 PM 57.2 °F 53.6 °F 88% 29.52 in 10.0 mi WSW 11.5 mph 19.6 mph N/A   Overcast
8:55 PM 57.2 °F 53.6 °F 88% 29.53 in 10.0 mi WSW 11.5 mph 19.6 mph N/A   Overcast
9:15 PM 57.2 °F 53.6 °F 88% 29.54 in 10.0 mi SW 9.2 mph 17.3 mph N/A   Overcast
9:35 PM 57.2 °F 53.6 °F 88% 29.54 in 10.0 mi WSW 9.2 mph 17.3 mph N/A   Overcast
9:55 PM 57.2 °F 53.6 °F 88% 29.55 in 10.0 mi WSW 13.8 mph 17.3 mph N/A   Overcast
10:15 PM 57.2 °F 53.6 °F 88% 29.55 in 10.0 mi WSW 11.5 mph 16.1 mph N/A   Overcast
10:35 PM 57.2 °F 53.6 °F 88% 29.56 in 10.0 mi WSW 9.2 mph 16.1 mph N/A   Overcast
10:55 PM 57.2 °F 53.6 °F 88% 29.56 in 10.0 mi WSW 11.5 mph - N/A   Overcast
11:15 PM 57.2 °F 53.6 °F 88% 29.55 in 10.0 mi WSW 12.7 mph 17.3 mph N/A   Overcast
11:35 PM 57.2 °F 53.6 °F 88% 29.55 in 10.0 mi SW 8.1 mph - N/A   Overcast
11:55 PM 55.4 °F 53.6 °F 94% 29.55 in 10.0 mi WSW 9.2 mph - N/A   Overcast